Location: St. Louis
(38.6270°N, 90.1994°W)
Time: 03:26:05
(UTC-05:00)

ISS - Pass Details

Date: 30 January 2014
Orbit: 402 x 404 km, 51.6° (Epoch: 27 May)

Event Time Altitude Azimuth Distance (km) Brightness Sun altitude
Exits shadow 04:33:41 13° 107° (ESE) 1,304 0.0 -30.3°
Drops below altitude 10° 04:34:08 10° 109° (ESE) 1,479 0.3 -30.2°
Sets 04:36:16 0° 116° (ESE) 2,333 1.4 -29.8°
